Regional Weather Roundup
Issued by NWS

Home | Current Version | Previous Version | Text Only | Print | Product List | Glossary On
Versions: 1 2 3 4 5 6 7 8 9 10 11 12 13 14 15 16 17 18 19 20 21 22 23 24 25 26 27 28 29 30 31 32 33 34 35 36 37 38 39 40 41 42 43 44 45 46 47 48 49 50
000
ASUS44 KFWD 200315
RWRTX
NORTH TEXAS HOURLY WEATHER ROUNDUP
NATIONAL WEATHER SERVICE FORT WORTH TX
1000 PM CDT FRI JUL 19 2019

NOTE: "FAIR" INDICATES FEW OR NO CLOUDS BELOW 12,000 FEET WITH NO
SIGNIFICANT WEATHER AND/OR OBSTRUCTIONS TO VISIBILITY.

TXZ118-119-200400-
DALLAS/FORT WORTH METROPLEX

CITY           SKY/WX    TMP DP  RH WIND       PRES   REMARKS
DFW AIRPORT    MOCLDY    88  69  53 SE14      29.89R HX  92
DALLAS LOVE    MOCLDY    89  70  53 S14       29.91R HX  94
FTW MEACHAM    FAIR      87  69  54 SE15      29.89R HX  91
DAL-EXECUTIVE  FAIR      86  70  58 S12       29.91R HX  90
FTW-ALLIANCE   MOCLDY    89  69  51 S13       29.90R HX  93
FTW-NAS-JRB    FAIR      90  67  46 SE10      29.90R HX  93
FTW-SPINKS     FAIR      84  69  60 SE6       29.92S
ARLINGTON      FAIR      87  69  54 SE9       29.91R HX  91
GRAND PRAIRIE  FAIR      87  68  51 SE9       29.92R HX  90
MESQUITE       FAIR      83  69  61 SE6       29.92R
LANCASTER      FAIR      83  71  67 SE7       29.93R
$$

TXZ091>094-102>105-117-120-121-131>134-200400-
NORTH CENTRAL TEXAS

CITY           SKY/WX    TMP DP  RH WIND       PRES   REMARKS
SHRMAN/DENISON FAIR      87  72  60 SE10      29.93R HX  94
GAINESVILLE    FAIR      83  70  63 S7        29.92R
BOWIE          FAIR      85  69  57 SE8       29.90R
BRIDGEPORT     FAIR      85  67  53 S8        29.91R
DECATUR        FAIR      86  68  53 SE10      29.91R
DENTON         FAIR      88  69  53 S12       29.90R HX  92
MCKINNEY       FAIR      86  70  58 S10       29.92R HX  90
BONHAM         FAIR      83  72  68 SE8       29.94R
GREENVILLE     FAIR      86  73  66 SE6       29.94R HX  93
ROCKWALL       FAIR      84  71  65 S5        29.93R
TERRELL        FAIR      84  72  67 SE6       29.93R
WAXAHACHIE     FAIR      85  72  65 SE7       29.94R HX  90
CLEBURNE       FAIR      84  70  61 SE8       29.93R
GRANBURY       FAIR      88  68  50 SE10      29.91R HX  92
$$

TXZ083>090-098>101-113>116-127>130-139>142-154-155-200400-
WESTERN NORTH TEXAS

CITY           SKY/WX    TMP DP  RH WIND       PRES   REMARKS
WICHITA FALLS  FAIR      85  69  58 SE13      29.85R
WF-KICKAPOO    FAIR     N/A N/A N/A SE12      29.88R
VERNON         FAIR      92  61  35 S14       29.84S HX  92
ABILENE        FAIR      86  64  47 SE9       29.91R
ABILENE-DYESS  FAIR      88  58  36 SE13      29.90R
GRAHAM         FAIR      86  69  56 SE9       29.87R HX  90
BRECKENRIDGE   FAIR      88  64  45 MISG      29.89R
CISCO          FAIR      84  64  51 S14       29.92R
EASTLAND       FAIR      84  66  54 SE10      29.91R
RANGER         FAIR      84  67  55 S12       29.92S
MINERAL WELLS  FAIR      85  67  54 SE10      29.89R
STEPHENVILLE   FAIR      85  66  53 SE8       29.95R
COMANCHE       CLOUDY    83  67  58 SE7       29.93R
BROWNWOOD      FAIR      84  64  51 SE8       29.93R
COLEMAN        FAIR      87  62  42 S9        29.93R
BRADY          FAIR      86  64  48 S10       29.94R
$$

TXZ143>147-156>162-174-175-200400-
CENTRAL TEXAS

CITY           SKY/WX    TMP DP  RH WIND       PRES   REMARKS
WACO           FAIR      88  70  55 SE13      29.91R HX  93
WACO-TSTC      CLEAR     84  72  65 SE8       29.92R
HILLSBORO      FAIR      87  72  60 SE9       29.92R HX  93
CORSICANA      FAIR      84  73  69 SE8       29.94R HX  90
MEXIA          FAIR      82  73  72 SE7       29.93R
HEARNE         FAIR      85  76  73 SE8       29.95R HX  94
CAMERON        FAIR      86  72  62 S10       29.94R HX  92
TEMPLE         FAIR      86  72  62 SE13      29.93R HX  92
KILLEEN        FAIR      85  71  60 SE12      29.92R HX  90
KILLEEN-SKYLRK FAIR      87  72  60 MISG      29.93R HX  93
FORT HOOD      FAIR      87  71  59 S12       29.89R HX  92
GATESVILLE     FAIR      86  70  58 SE8       29.94R HX  90
HAMILTON       FAIR      84  67  56 S7        29.94R
LAMPASAS       FAIR      86  69  56 S8        29.93S
$$

TXZ095>097-106>112-122>126-135>138-148>153-164>167-200400-
EAST TEXAS

CITY           SKY/WX    TMP DP  RH WIND       PRES   REMARKS
PARIS          FAIR      80  73  79 SE7       29.96R
SULPHUR SPRNGS FAIR      85  72  63 S6        29.97R HX  91
MOUNT PLEASANT FAIR      80  74  83 SE5       29.97R
GILMER         FAIR      80  75  83 CALM      29.97R
MINEOLA        FAIR      81  73  78 SE3       29.95R
TYLER          FAIR      83  74  74 SE7       29.96R
LONGVIEW       MOCLDY    83  77  82 SE5       29.96R HX  92
MARSHALL       FAIR      80  74  81 MISG      29.99R
ATHENS         FAIR      81  73  78 CALM      29.94R
PALESTINE      FAIR      83  74  73 SE6       29.97R HX  90
JACKSONVILLE   FAIR      82  72  72 S6        30.00R
HENDERSON      FAIR      81  74  79 CALM      29.98R
CENTER         FAIR      82  73  76 SE5       30.00
NACOGDOCHES    FAIR      83  76  79 SE7       29.99R HX  91
LUFKIN         FAIR      81  73  76 S8        29.98R
$$

SUPPLEMENTAL OBSERVATIONS (NWS FORT WORTH AREA)

CITY           SKY/WX    TMP DP  RH WIND       PRES   REMARKS
CADDO GRASSLND   N/A     82  70  65 S5          N/A
LBJ GRASSLAND    N/A     86  68  54 SE9         N/A
POSSUM KINGDOM   N/A     88  68  51 SE12        N/A  HX  91
GRANBURY         N/A     88  68  51 SE10        N/A  HX  91
COMANCHE         N/A     82  66  57 SE9         N/A
MCGREGOR         N/A     86  70  58 S10         N/A  HX  90
TEMPLE           N/A     88  70  55 SE2         N/A  HX  92
LAKE LIMESTONE   N/A     84  75  74 SE5         N/A  HX  92
PALESTINE        N/A     82  73  74 S6          N/A
$$

SUPPLEMENTAL OBSERVATIONS (NWS NORMAN AREA)

CITY           SKY/WX    TMP DP  RH WIND       PRES   REMARKS
GOODLETT         N/A     91  61  36 SE14      29.83R HX  91
ODELL            N/A     90  63  41 SE14      29.85R HX  90
CROWELL          N/A     90  64  41 S15       29.85R HX  91
KNOX CITY        N/A     89  62  39 SE14      29.85R
SEYMOUR          N/A     86  63  46 SE13      29.85R
MILLERS CREEK    N/A     86  64  48 SE14        N/A
$$

SUPPLEMENTAL OBSERVATIONS (NWS SAN ANGELO AREA)

CITY           SKY/WX    TMP DP  RH WIND       PRES   REMARKS
WEINERT          N/A     88  62  41 SE15      29.86R
HASKELL          N/A     87  62  43 SE9       29.87R
THROCKMORTON     N/A     83  66  56 SE8       29.88R
STAMFORD         N/A     86  62  45 SE10      29.89R
CLYDE            N/A     84  64  50 SE9       29.94R
HAMBY            N/A     84  59  42 SE6         N/A
IVIE RESERVOIR   N/A     84  61  45 SE8         N/A
COLORADO BEND    N/A     88  68  51 SE10        N/A  HX  91
$$

SUPPLEMENTAL OBSERVATIONS (NWS SHREVEPORT AREA)

CITY           SKY/WX    TMP DP  RH WIND       PRES   REMARKS
TEXARKANA        N/A     79  77  94 CALM        N/A
CADDO LAKE       N/A     79  77  94 CALM        N/A
LUFKIN           N/A     82  73  74 MISG        N/A
N SABINE NF      N/A     82  75  78 MISG        N/A
$$

SUPPLEMENTAL OBSERVATIONS ARE A COLLECTION OF AUTOMATED INSTRUMENTS
THAT ARE MAINTAINED BY A VARIETY OF FEDERAL AND STATE AGENCIES.
CERTAIN ELEMENTS...SUCH AS HUMIDITY VALUES AND SUSTAINED WIND
SPEEDS...MAY BE APPROXIMATED.




USA.gov is the U.S. government's official web portal to all federal, state and local government web resources and services.